Tegucigalpa, Honduras

11:06 AM CST on September 26, 2017 (GMT -0600)
Toncontin International

Weather History for MHTG - October, 2012

Change the Weather History Date:

Thursday, October 18, 2012

  Actual Average Record
Temperature  
Mean Temperature 74 °F -  
Max Temperature 84 °F 77 °F 87 °F (2006)
Min Temperature 65 °F 61 °F 62 °F (1997)
Cooling Degree Days 10    
Growing Degree Days 24 (Base 50)    
Moisture  
Dew Point 68 °F    
Average Humidity 85    
Maximum Humidity 100    
Minimum Humidity 57    
Precipitation  
Precipitation 0.28 in 0.09 in - ()
Sea Level Pressure  
Sea Level Pressure 29.94 in    
Wind  
Wind Speed 3 mph ()    
Max Wind Speed 10 mph    
Max Gust Speed -    
Visibility 5.5 miles    
Events Rain    
Averages and records for this station are not official NWS values.
T = Trace of Precipitation, MM = Missing Value Source: Averaged Metar Reports

Daily Weather History Graph

Daily Weather History Graph

Search for Another Location

Airport or City:

Trip Planner

Search our weather history database for the weather conditions in past years. The results will help you decide how hot, cold, wet, or windy it might be!

Date:

Astronomy

Oct. 18, 2012 Rise Set
Actual Time 5:40 AM CST 5:27 PM CST
Civil Twilight 5:18 AM CST 5:48 PM CST
Nautical Twilight 4:53 AM CST 6:13 PM CST
Astronomical Twilight 4:28 AM CST 6:38 PM CST
Moon 8:49 AM CST (10/18) 8:33 PM CST (10/18)
Length of Visible Light 12h 29m
Length of Day
11h 46m
Waxing Crescent, 15% of the Moon is Illuminated
Oct 18
Waxing Crescent
Oct 21
First Quarter
Oct 29
Full
Nov 6
Last Quarter
Nov 13
New

Hourly Weather History & Observations

Time (CST) Temp. Heat Index Dew Point Humidity Pressure Visibility Wind Dir Wind Speed Gust Speed Precip Events Conditions
12:00 AM 68 °F - 67 °F 97% 29.88 in 6 mi SSW 4.6 mph - -   Mist
12:00 AM 68.0 °F - 68.0 °F 100% 30.04 in 6.2 mi SSW 4.6 mph - N/A   Mostly Cloudy
1:00 AM 68.0 °F - 68.0 °F 100% 30.04 in 6.2 mi SSW 4.6 mph - N/A   Mostly Cloudy
2:00 AM 66.2 °F - 66.2 °F 100% 30.01 in 6.2 mi SSW 2.3 mph - N/A   Scattered Clouds
3:00 AM 65 °F - 65 °F 100% 29.58 in 5 mi SSW 2.3 mph - -   Mist
3:00 AM 66.2 °F - 64.4 °F 94% 29.98 in 5.0 mi SSW 2.3 mph - N/A   Mostly Cloudy
4:00 AM 66.2 °F - 64.4 °F 94% 29.98 in 5.0 mi Calm Calm - N/A   Mostly Cloudy
5:00 AM 66.2 °F - 66.2 °F 100% 30.01 in 3.7 mi Calm Calm - N/A   Mostly Cloudy
6:00 AM 67 °F - 66 °F 95% 29.86 in 2 mi SW 3.5 mph - -   Mostly Cloudy
6:00 AM 66.2 °F - 66.2 °F 100% 30.01 in 2.5 mi SW 3.5 mph - N/A   Mostly Cloudy
7:00 AM 68.0 °F - 66.2 °F 94% 30.04 in 2.5 mi ESE 3.5 mph - N/A   Mostly Cloudy
8:00 AM 73.4 °F - 68.0 °F 83% 30.04 in 6.2 mi Calm Calm - N/A   Scattered Clouds
9:00 AM 78 °F - 69 °F 66% 29.82 in 6 mi West 3.5 mph - -   Haze
9:00 AM 78.8 °F - 68.0 °F 69% 30.04 in 6.2 mi West 3.5 mph - N/A   Scattered Clouds
10:00 AM 78.8 °F - 68.0 °F 69% 30.04 in 6.2 mi SE 3.5 mph - N/A   Scattered Clouds
11:00 AM 80.6 °F 83.2 °F 68.0 °F 65% 30.04 in 6.2 mi East 3.5 mph - N/A   Scattered Clouds
12:00 PM 80 °F - 68 °F 60% 29.78 in 7 mi East 4.6 mph - -   Haze
12:00 PM 78.8 °F - 68.0 °F 69% 30.01 in 6.2 mi East 4.6 mph - N/A   Mostly Cloudy
1:00 PM 78.8 °F - 68.0 °F 69% 29.98 in 6.2 mi SE 4.6 mph - N/A   Mostly Cloudy
2:00 PM 80.6 °F 83.2 °F 68.0 °F 65% 29.95 in 6.2 mi South 5.8 mph - N/A   Scattered Clouds
3:00 PM 81 °F - 68 °F 57% 29.68 in 6 mi WSW 8.1 mph - -   Haze
3:00 PM 80.6 °F 83.2 °F 68.0 °F 65% 29.92 in 6.2 mi WSW 8.1 mph - N/A   Scattered Clouds
4:00 PM 80.6 °F 83.2 °F 68.0 °F 65% 29.92 in 6.2 mi West 8.1 mph - N/A Rain Rain Showers
5:00 PM 75.2 °F - 71.6 °F 89% 29.95 in 5.0 mi South 10.4 mph - N/A Rain Rain Showers
6:00 PM 71 °F - 71 °F 99% 29.76 in 5 mi SSE 4.6 mph - - Rain Light Rain
6:00 PM 71.6 °F - 71.6 °F 100% 29.95 in 5.0 mi SSE 4.6 mph - N/A   Mostly Cloudy
7:00 PM 71.6 °F - 69.8 °F 94% 29.98 in 6.2 mi SSE 4.6 mph - N/A   Mostly Cloudy
8:00 PM 71.6 °F - 69.8 °F 94% 29.98 in 6.2 mi South 4.6 mph - N/A   Mostly Cloudy
9:00 PM 71 °F - 69 °F 92% 29.78 in 6 mi South 3.5 mph - -   Mostly Cloudy
9:00 PM 71.6 °F - 69.8 °F 94% 29.98 in 6.2 mi South 3.5 mph - N/A   Mostly Cloudy
10:00 PM 71.6 °F - 69.8 °F 94% 30.01 in 6.2 mi South 3.5 mph - N/A   Scattered Clouds
11:00 PM 69.8 °F - 69.8 °F 100% 30.01 in 6.2 mi Variable 2.3 mph - N/A   Scattered Clouds